Location: ČR
(50.0000°N, 15.0000°E)
Time: 14:17:26
(UTC+00:00)

Explorer 7 - Pass Details

Date: 25 October 2021
Orbit: 483 x 675 km, 50.3° (Epoch: 27 November)

Event Time Altitude Azimuth Distance (km) Brightness Sun altitude
Rises 19:15:51 0° 211° (SSW) 2,615 - -33.4°
Reaches altitude 10° 19:18:16 10° 197° (SSW) 1,762 - -33.7°
Maximum altitude 19:21:32 24° 143° (SE) 1,145 - -34.2°
Drops below altitude 10° 19:24:58 10° 88° (E) 1,862 - -34.7°
Sets 19:27:36 0° 75° (ENE) 2,804 - -35.1°
